Weather History for Crestview, FL

Change the Weather History Date:

Saturday, October 20, 2012

  Actual Average Record
Temperature  
Mean Temperature 60 °F -  
Max Temperature 79 °F 78 °F 89 °F (2004)
Min Temperature 43 °F 47 °F 31 °F (1989)
Degree Days  
Heating Degree Days 4    
Growing Degree Days 10 (Base 50)    
Moisture  
Dew Point 46 °F    
Average Humidity 70    
Maximum Humidity 93    
Minimum Humidity 28    
Precipitation  
Precipitation 0.00 in - - ()
Sea Level Pressure  
Sea Level Pressure 29.97 in    
Wind  
Wind Speed 2 mph (WNW)    
Max Wind Speed 14 mph    
Max Gust Speed -    
Visibility 10 miles    
Events      
Averages and records for this station are not official NWS values.
T = Trace of Precipitation, MM = Missing Value Source: NWS Daily Summary

Daily Weather History Graph

Daily Weather History Graph

Search for Another Location

Airport:

Trip Planner

Search our weather history database for the weather conditions in past years. The results will help you decide how hot, cold, wet, or windy it might be!

Date:

Astronomy

Oct. 20, 2012 Rise Set
Actual Time 6:52 AM CDT 6:08 PM CDT
Civil Twilight 6:27 AM CDT 6:33 PM CDT
Nautical Twilight 5:59 AM CDT 7:01 PM CDT
Astronomical Twilight 5:31 AM CDT 7:29 PM CDT
Moon 12:16 PM CDT (10/20) 11:04 PM CDT (10/20)
Length of Visible Light 12h 05m
Length of Day
11h 16m
Waxing Crescent, 34% of the Moon is Illuminated
Oct 20
Waxing Crescent
Oct 21
First Quarter
Oct 29
Full
Nov 6
Last Quarter
Nov 13
New

Hourly Weather History & Observations

Time (CDT) Temp. Dew Point Humidity Pressure Visibility Wind Dir Wind Speed Gust Speed Precip Events Conditions
12:53 AM 48.9 °F 46.9 °F 93% 29.92 in 10.0 mi Calm Calm - N/A   Clear
1:53 AM 46.9 °F 45.0 °F 93% 29.91 in 10.0 mi Calm Calm - N/A   Clear
2:53 AM 46.9 °F 44.1 °F 90% 29.92 in 10.0 mi Calm Calm - N/A   Clear
3:53 AM 45.0 °F 43.0 °F 93% 29.93 in 10.0 mi Calm Calm - N/A   Clear
5:53 AM 44.1 °F 42.1 °F 93% 29.96 in 9.0 mi Calm Calm - N/A   Clear
6:53 AM 43.0 °F 41.0 °F 93% 29.97 in 10.0 mi Calm Calm - N/A   Clear
7:53 AM 48.0 °F 46.0 °F 93% 29.99 in 10.0 mi Calm Calm - N/A   Clear
8:53 AM 57.0 °F 50.0 °F 77% 30.01 in 10.0 mi Calm Calm - N/A   Clear
9:53 AM 66.9 °F 50.0 °F 54% 30.01 in 10.0 mi Calm Calm - N/A   Clear
10:53 AM 72.0 °F 46.0 °F 40% 30.01 in 10.0 mi West 5.8 mph - N/A   Clear
11:53 AM 75.9 °F 44.1 °F 32% 30.00 in 10.0 mi West 8.1 mph - N/A   Clear
1:53 PM 78.1 °F 42.1 °F 28% 29.95 in 10.0 mi WNW 13.8 mph - N/A   Clear
2:53 PM 78.1 °F 42.1 °F 28% 29.93 in 10.0 mi WNW 9.2 mph - N/A   Clear
3:53 PM 78.1 °F 44.1 °F 30% 29.93 in 10.0 mi NNW 9.2 mph - N/A   Clear
4:53 PM 77.0 °F 44.1 °F 31% 29.94 in 10.0 mi WNW 5.8 mph - N/A   Clear
5:53 PM 72.0 °F 46.0 °F 40% 29.94 in 10.0 mi NW 3.5 mph - N/A   Clear
6:53 PM 60.1 °F 53.1 °F 78% 29.96 in 10.0 mi Calm Calm - N/A   Clear
7:53 PM 55.9 °F 51.1 °F 84% 29.97 in 10.0 mi Calm Calm - N/A   Clear
8:53 PM 54.0 °F 51.1 °F 90% 29.99 in 10.0 mi Calm Calm - N/A   Clear
9:53 PM 52.0 °F 48.9 °F 89% 30.00 in 10.0 mi Calm Calm - N/A   Clear
10:53 PM 50.0 °F 48.0 °F 93% 30.02 in 10.0 mi Calm Calm - N/A   Clear
11:53 PM 48.9 °F 46.9 °F 93% 30.02 in 10.0 mi Calm Calm - N/A   Clear